User: anonymous   Login
Location: Newark
(44.0692°N, 7.2567°E)
Time: 00:36:46
(UTC+00:00)
Language:

N. Korean satellite - Orbit

View from above orbital plane
View from above orbital plane
View from above satellite
View from above satellite

Ground track
Ground track

The orbit data is extracted from the following two-line orbital elements,

1 39026U 12072A   19233.51931344  .00000627  00000-0  25260-4 0  9994
2 39026  97.2125 234.6073 0036465 232.8065 126.9845 15.27928757371349
Epoch (UTC): 21 August 2019 12:27:48
Eccentricity: 0.0036465
inclination: 97.2125°
perigee height: 457 km
apogee height: 507 km
right ascension of ascending node: 234.6073°
argument of perigee: 232.8065°
revolutions per day: 15.27928757
mean anomaly at epoch: 126.9845°
orbit number at epoch: 37134

The dashed part of the orbit path shows where the satellite is in the earth's shadow,  

DLR